This is the latest recevied weather packets stored in our database for station/object AD0YN. If no packets are shown the sender has not sent any weather packets the latest 10 day(s).
| Time | Temp. | Humidity | Pressure | Rain* | Wind** | Luminosity | Snow |
|---|---|---|---|---|---|---|---|
| 1777511054 | 12.78° C | 50% | 1017.6 hPa | 0 mm | - | 5 W/m² | - |
| 1777510750 | 13.33° C | 50% | 1017.5 hPa | 0 mm | - | 8 W/m² | - |
| 1777510448 | 13.89° C | 49% | 1017.5 hPa | 0 mm | - | 12 W/m² | - |
| 1777510143 | 14.44° C | 47% | 1017.5 hPa | 0 mm | - | 16 W/m² | - |
| 1777509841 | 14.44° C | 47% | 1017.4 hPa | 0 mm | - | 21 W/m² | - |
| 1777509541 | 14.44° C | 46% | 1017.7 hPa | 0 mm | - | 25 W/m² | - |
| 1777509239 | 15° C | 45% | 1017.1 hPa | 0 mm | - | 30 W/m² | - |
| 1777508935 | 15° C | 43% | 1017.3 hPa | 0 mm | - | 35 W/m² | - |
| 1777508632 | 15.56° C | 45% | 1017.3 hPa | 0 mm | - | 41 W/m² | - |
| 1777508330 | 15° C | 46% | 1017.3 hPa | 0 mm | - | 48 W/m² | - |
| 1777508027 | 15.56° C | 43% | 1017.2 hPa | 0 mm | - | 59 W/m² | - |
| 1777507723 | 15.56° C | 42% | 1017.1 hPa | 0 mm | - | 70 W/m² | - |
| 1777507420 | 15.56° C | 42% | 1017.2 hPa | 0 mm | - | 85 W/m² | - |
| 1777507117 | 16.11° C | 40% | 1017.4 hPa | 0 mm | - | 100 W/m² | - |
| 1777506815 | 16.11° C | 44% | 1017.3 hPa | 0 mm | - | 114 W/m² | - |
| 1777506512 | 16.11° C | 43% | 1017.4 hPa | 0 mm | - | 126 W/m² | - |
| 1777506207 | 16.11° C | 41% | 1017.3 hPa | 0 mm | - | 144 W/m² | - |
| 1777505904 | 15.56° C | 45% | 1017.5 hPa | 0 mm | - | 175 W/m² | - |
| 1777505600 | 15.56° C | 42% | 1017.4 hPa | 0 mm | - | 165 W/m² | - |
| 1777505297 | 16.11° C | 43% | 1017.2 hPa | 0 mm | - | 145 W/m² | - |
| 1777504993 | 16.11° C | 40% | 1017.4 hPa | 0 mm | - | 162 W/m² | - |
| 1777504690 | 16.67° C | 39% | 1017.4 hPa | 0 mm | - | 205 W/m² | - |
| 1777504388 | 16.67° C | 42% | 1017.4 hPa | 0 mm | - | 224 W/m² | - |
| 1777504082 | 16.67° C | 39% | 1017.4 hPa | 0 mm | - | 238 W/m² | - |
| 1777503778 | 16.67° C | 41% | 1017.4 hPa | 0 mm | - | 259 W/m² | - |
* Rain latest hour (hover to see other rain measurements)
** Current wind speed in m/s (hover to see current wind gust speed)